Location: LDNL
(36.4545°S, 141.6685°E)
Time: 19:21:17
(UTC+11:00)

Tiros 1 despin weight - All Passes

Search period start: 28 January 2022 00:00
Search period end: 07 February 2022 00:00
Orbit: 592 x 641 km, 48.2° (Epoch: 28 January)

Date Brightness Start Highest point End Pass type
(mag) Time Alt. Az. Time Alt. Az. Time Alt. Az.
28 Jan - 04:38:53 10° NW 04:43:25 59° NE 04:47:56 10° ESE visible
28 Jan - 06:21:00 10° W 06:25:09 33° SSW 06:29:17 10° SE daylight
28 Jan - 08:04:32 10° SW 08:07:44 18° S 08:10:53 10° SE daylight
28 Jan - 09:46:39 10° SW 09:50:25 25° SSE 09:54:08 10° ESE daylight
28 Jan - 11:27:53 10° SW 11:32:23 88° SSE 11:36:50 10° NE daylight
28 Jan - 13:11:00 10° W 13:13:23 14° NW 13:15:45 10° NNW daylight
29 Jan - 03:15:02 10° N 03:18:19 19° NE 03:21:34 10° E visible
29 Jan - 04:54:50 10° WNW 04:59:28 74° SSW 05:04:03 10° SE visible
29 Jan - 06:37:49 10° WSW 06:41:33 24° SSW 06:45:15 10° SE daylight
29 Jan - 08:21:03 10° SW 08:24:17 19° S 08:27:29 10° SE daylight
29 Jan - 10:02:35 10° SW 10:06:47 36° SSE 10:10:55 10° E daylight
29 Jan - 11:44:05 10° WSW 11:48:22 46° NW 11:52:36 10° NNE daylight
30 Jan - 03:29:49 10° NNW 03:34:08 38° NE 03:38:24 10° ESE visible
30 Jan - 05:11:14 10° W 05:15:38 43° SSW 05:20:01 10° SE visible
30 Jan - 06:54:42 10° SW 06:58:03 19° S 07:01:23 10° SE daylight
30 Jan - 08:37:16 10° SW 08:40:48 22° SSE 08:44:19 10° ESE daylight
30 Jan - 10:18:32 10° SW 10:23:00 61° SSE 10:27:24 10° ENE daylight
30 Jan - 12:00:44 10° W 12:04:13 23° NW 12:07:40 10° N daylight
31 Jan - 02:07:20 10° NNE 02:09:07 12° NE 02:10:56 10° ENE visible
31 Jan - 03:45:26 10° NW 03:50:04 77° NE 03:54:41 10° ESE visible
31 Jan - 05:27:56 10° W 05:31:57 28° SSW 05:35:56 10° SE visible
31 Jan - 07:11:24 10° SW 07:14:36 18° S 07:17:46 10° SE daylight
31 Jan - 08:53:16 10° SW 08:57:14 29° SSE 09:01:08 10° E daylight
31 Jan - 10:34:35 10° WSW 10:39:05 72° NW 10:43:29 10° NE daylight
31 Jan - 12:19:18 10° WNW 12:19:55 10° NW 12:20:32 10° NW daylight
01 Feb - 02:21:03 10° N 02:24:52 25° NE 02:28:40 10° ESE visible
01 Feb - 04:01:34 10° WNW 04:06:10 59° SSW 04:10:43 10° SE visible
01 Feb - 05:44:48 10° WSW 05:48:24 22° SSW 05:51:57 10° SE visible
01 Feb - 07:27:48 10° SW 07:31:09 20° S 07:34:28 10° SE daylight
01 Feb - 09:09:12 10° SW 09:13:33 44° SSE 09:17:49 10° E daylight
01 Feb - 10:50:55 10° WSW 10:55:00 35° NW 10:59:01 10° NNE daylight
02 Feb - 02:36:13 10° NW 02:40:43 51° NE 02:45:14 10° ESE visible
02 Feb - 04:18:05 10° W 04:22:23 36° SSW 04:26:39 10° SE visible
02 Feb - 06:01:37 10° SW 06:04:54 19° S 06:08:11 10° SE visible
02 Feb - 07:43:54 10° SW 07:47:39 24° SSE 07:51:19 10° ESE daylight
02 Feb - 09:25:10 10° SW 09:29:43 77° SE 09:34:10 10° ENE daylight
02 Feb - 11:07:53 10° W 11:10:46 17° NW 11:13:39 10° N daylight
03 Feb - 01:12:43 10° N 01:15:39 17° NE 01:18:34 10° E night (unlit)
03 Feb - 02:52:02 10° NW 02:56:43 84° SW 03:01:23 10° SE visible
03 Feb - 04:34:52 10° WSW 04:38:45 25° SSW 04:42:37 10° SE visible
03 Feb - 06:18:12 10° SW 06:21:28 19° S 06:24:42 10° SE visible
03 Feb - 07:59:52 10° SW 08:04:01 33° SSE 08:08:07 10° E daylight
03 Feb - 09:41:18 10° WSW 09:45:43 54° NW 09:50:04 10° NE daylight
04 Feb - 01:27:13 10° NNW 01:31:25 33° NE 01:35:36 10° ESE visible
04 Feb - 03:08:20 10° WNW 03:12:52 48° SSW 03:17:21 10° SE visible
04 Feb - 04:51:44 10° WSW 04:55:13 20° S 04:58:41 10° SE visible
04 Feb - 06:34:28 10° SW 06:38:00 21° S 06:41:28 10° ESE daylight
04 Feb - 08:15:48 10° SW 08:20:17 54° SSE 08:24:40 10° ENE daylight
04 Feb - 09:57:48 10° WSW 10:01:35 26° NW 10:05:17 10° N daylight
05 Feb - 00:06:04 10° NE 00:06:28 10° NE 00:06:51 10° ENE night (unlit)
05 Feb - 01:42:41 10° NW 01:47:19 67° NE 01:51:58 10° ESE visible
05 Feb - 03:24:58 10° W 03:29:09 31° SSW 03:33:17 10° SE visible
05 Feb - 05:08:29 10° SW 05:11:45 19° S 05:15:01 10° SE visible
05 Feb - 06:50:31 10° SW 06:54:27 27° SSE 06:58:19 10° ESE daylight
05 Feb - 08:31:50 10° SW 08:36:23 83° NW 08:40:51 10° NE daylight
05 Feb - 10:15:22 10° WNW 10:17:18 13° NW 10:19:13 10° NNW daylight
06 Feb - 00:18:34 10° N 00:22:09 22° NE 00:25:45 10° E night (unlit)
06 Feb - 01:58:42 10° WNW 02:03:22 67° SSW 02:08:02 10° SE visible
06 Feb - 03:41:48 10° WSW 03:45:33 23° SSW 03:49:17 10° SE visible
06 Feb - 05:24:56 10° SW 05:28:19 19° S 05:31:38 10° SE visible
06 Feb - 07:06:27 10° SW 07:10:46 40° SSE 07:15:02 10° E daylight
06 Feb - 08:48:03 10° WSW 08:52:19 41° NW 08:56:30 10° NNE daylight
